Find Starlink 3517

NORAD ID: 51735 Int'l Des: 2022-016 Owner: SPXS Country: US Constellation: starlink operational
LEOCIRCULAR

当前视图

正在加载3D地球...

关于 Starlink 3517

正在加载描述...

即将过境

Passes for default location (London). Set your location on the main map for personalized predictions.

高度历史

Loading altitude history...

两行轨道根数

1 51735U 22016X 26158.61350597 .00000977 00000-0 79476-4 0 9990
2 51735 53.1724 275.3981 0001394 84.5685 275.5465 15.08829309237149
Epoch: Jun 7, 2026 • Age: 11 hours

当前状态

高度 541.8 km
速度 7.59 km/s
星下点 -6.49°S, 15.26°W
发射日期 Feb 21, 2022
运行时间 4.2 years
类型 internet

技术详情

分类 Payload
质量 297.00 kg
干质量 275.00 kg
总质量 297.00 kg
长度 0.20 m
直径 2.80 m
跨度 9.00 m
形状 Box + pan
制造商 SPXS
平台类型 Starlink
阶段状态 In Orbit
所有者/国家 SPXS/US

Most Searched